Weather History for Valdosta, GA

Change the Weather History Date:

Thursday, May 16, 2013

  Actual Average Record
Temperature  
Mean Temperature 72 °F -  
Max Temperature 86 °F 83 °F 91 °F (2001)
Min Temperature 58 °F 63 °F 46 °F (1997)
Cooling Degree Days 7    
Growing Degree Days 22 (Base 50)    
Moisture  
Dew Point 59 °F    
Average Humidity 72    
Maximum Humidity 97    
Minimum Humidity 37    
Precipitation  
Precipitation 0.00 in - - ()
Sea Level Pressure  
Sea Level Pressure 30.07 in    
Wind  
Wind Speed 4 mph (South)    
Max Wind Speed 12 mph    
Max Gust Speed -    
Visibility 9 miles    
Events Rain    
Averages and records for this station are not official NWS values.
T = Trace of Precipitation, MM = Missing Value Source: NWS Daily Summary

Daily Weather History Graph

Daily Weather History Graph

Search for Another Location

Airport:

Trip Planner

Search our weather history database for the weather conditions in past years. The results will help you decide how hot, cold, wet, or windy it might be!

Date:

Astronomy

May. 16, 2013 Rise Set
Actual Time 6:36 AM EDT 8:21 PM EDT
Civil Twilight 6:10 AM EDT 8:48 PM EDT
Nautical Twilight 5:38 AM EDT 9:20 PM EDT
Astronomical Twilight 5:04 AM EDT 9:54 PM EDT
Moon 12:01 PM EDT (5/16) 12:48 AM EDT (5/16)
Length of Visible Light 14h 38m
Length of Day
13h 45m
Waxing Crescent, 35% of the Moon is Illuminated
May 16
Waxing Crescent
May 18
First Quarter
May 25
Full
May 31
Last Quarter
Jun 8
New

Hourly Weather History & Observations

Time (EDT) Temp. Heat Index Dew Point Humidity Pressure Visibility Wind Dir Wind Speed Gust Speed Precip Events Conditions
12:58 AM 68.9 °F - 57.6 °F 67% 30.09 in 10.0 mi WSW 4.6 mph - N/A   Clear
1:58 AM 64.0 °F - 57.6 °F 79% 30.07 in 10.0 mi SSE 2.3 mph - N/A   Clear
2:58 AM 61.0 °F - 57.6 °F 88% 30.04 in 10.0 mi SE 1.2 mph - N/A   Clear
3:58 AM 61.7 °F - 58.5 °F 89% 30.04 in 10.0 mi South 1.2 mph - N/A   Overcast
4:58 AM 59.9 °F - 57.7 °F 93% 30.06 in 10.0 mi Calm Calm - N/A   Partly Cloudy
5:36 AM 59.0 °F - 57.2 °F 94% 30.07 in 8.0 mi Calm Calm - N/A   Clear
5:42 AM 59.0 °F - 57.2 °F 94% 30.07 in 5.0 mi SSW 3.5 mph - N/A   Clear
5:44 AM 59.0 °F - 57.2 °F 94% 30.07 in 5.0 mi SSW 3.5 mph - N/A   Clear
5:46 AM 59.0 °F - 57.2 °F 94% 30.08 in 5.0 mi South 3.5 mph - N/A   Clear
5:48 AM 59.0 °F - 57.2 °F 94% 30.08 in 4.0 mi South 2.3 mph - N/A   Clear
5:58 AM 59.0 °F - 57.2 °F 94% 30.09 in 5.0 mi South 2.3 mph - N/A   Clear
6:00 AM 59.0 °F - 57.2 °F 94% 30.08 in 7.0 mi South 3.5 mph - N/A   Clear
6:04 AM 59.0 °F - 57.2 °F 94% 30.08 in 10.0 mi SSE 4.6 mph - N/A   Clear
6:58 AM 58.8 °F - 58.1 °F 97% 30.09 in 10.0 mi South 2.3 mph - N/A   Partly Cloudy
7:58 AM 63.1 °F - 59.5 °F 88% 30.12 in 10.0 mi South 4.6 mph - N/A   Clear
8:58 AM 66.7 °F - 60.6 °F 81% 30.14 in 10.0 mi South 3.5 mph - N/A   Mostly Cloudy
9:55 AM 71.6 °F - 59.0 °F 64% 30.13 in 10.0 mi South 3.5 mph - N/A   Mostly Cloudy
10:55 AM 75.2 °F - 59.0 °F 57% 30.14 in 10.0 mi South 5.8 mph - N/A   Scattered Clouds
11:55 AM 78.8 °F - 59.0 °F 51% 30.13 in 10.0 mi South 5.8 mph - N/A   Mostly Cloudy
12:55 PM 80.6 °F 81.1 °F 59.0 °F 48% 30.11 in 10.0 mi South 6.9 mph - N/A   Overcast
1:55 PM 82.4 °F 82.0 °F 57.2 °F 42% 30.09 in 10.0 mi SSW 8.1 mph - N/A   Mostly Cloudy
2:55 PM 82.4 °F 82.5 °F 59.0 °F 45% 30.07 in 10.0 mi South 5.8 mph - N/A   Mostly Cloudy
3:55 PM 84.2 °F 83.8 °F 59.0 °F 42% 30.04 in 10.0 mi SSE 8.1 mph - N/A   Mostly Cloudy
4:55 PM 86.0 °F 84.9 °F 57.2 °F 37% 30.03 in 10.0 mi South 11.5 mph - N/A   Clear
5:58 PM 84.6 °F 84.2 °F 59.2 °F 42% 30.02 in 10.0 mi South 8.1 mph - N/A   Clear
6:58 PM 83.5 °F 83.4 °F 59.7 °F 44% 30.02 in 10.0 mi South 5.8 mph - N/A   Clear
7:58 PM 79.3 °F - 62.2 °F 56% 30.02 in 10.0 mi SE 3.5 mph - N/A   Partly Cloudy
8:58 PM 76.6 °F - 62.6 °F 62% 30.04 in 10.0 mi Calm Calm - N/A   Mostly Cloudy
9:09 PM 73.4 °F - 62.6 °F 69% 30.03 in 10.0 mi Calm Calm - N/A Rain Light Rain
9:15 PM 73.4 °F - 62.6 °F 69% 30.04 in 10.0 mi Calm Calm - N/A   Partly Cloudy
9:58 PM 75.4 °F - 63.1 °F 66% 30.05 in 10.0 mi SW 5.8 mph - 0.00 in   Clear
10:58 PM 72.3 °F - 63.9 °F 75% 30.06 in 10.0 mi SSW 2.3 mph - N/A   Clear
11:58 PM 70.9 °F - 64.0 °F 79% 30.06 in 10.0 mi SW 3.5 mph - N/A   Mostly Cloudy